Regional Weather Roundup
Issued by NWS Charleston, SC

Current Version | Previous Version | Graphics & Text | Print | Product List | Glossary On
Versions: 1 2 3 4 5 6 7 8 9 10 11 12 13 14 15 16 17 18 19 20 21 22 23 24 25 26 27 28 29 30 31 32 33 34 35 36 37 38 39 40 41 42 43 44 45 46 47 48 49 50
000
ASUS42 KCHS 270912
RWRCHS

REGIONAL WEATHER ROUNDUP
NATIONAL WEATHER SERVICE CHARLESTON SC
500 AM EDT TUE JUN 27 2017

NOTE: "FAIR" INDICATES FEW OR NO CLOUDS BELOW 12,000 FEET WITH NO
SIGNIFICANT WEATHER AND/OR OBSTRUCTIONS TO VISIBILITY.

NOT ALL STATIONS ARE QUALITY CONTROLLED. USE DATA WITH CAUTION...
ESPECIALLY DEWPOINT OBSERVATIONS.

SCZ027-030-031-034>040-042>050-271000-
...SOUTHEAST SOUTH CAROLINA...

CITY           SKY/WX    TMP DP  RH WIND       PRES   REMARKS
N CHARLESTON   PTCLDY    69  66  90 N3        30.02S
WATERFRONT PRK   N/A     76  69  79 VRB2      30.00S
JOHNS ISLAND   FAIR      72  70  94 CALM      30.02R
PINOPOLIS        N/A     73  70  88 CALM      29.94S
MONCKS CORNER  FAIR      66  64  94 CALM      30.03R
SUMMERVILLE    CLOUDY    68  68 100 CALM      30.03S
BEAUFORT MCAS  CLOUDY    74  73  97 CALM      30.03R
BEAUFORT ARPT  PTSUNNY   73  72  94 CALM      30.02R
HILTON HEAD IS CLOUDY    75  73  94 CALM      30.03R
WALTERBORO     SUNNY     66  64  94 CALM      30.04R
ALLENDALE      FAIR      70  68  94 CALM      30.03R

...SOUTHERN MIDLANDS AND PEE DEE...

CITY           SKY/WX    TMP DP  RH WIND       PRES   REMARKS
GEORGETOWN     PTSUNNY   66  64  94 CALM      30.03S
KINGSTREE      FAIR      63  61  94 CALM      30.03R
ORANGEBURG     CLEAR     65  64  97 CALM      30.04R
BARNWELL       FAIR      66  66 100 CALM      30.04S
AIKEN          FAIR      63  61  94 CALM      30.08R
MANNING        FAIR      63  55  77 CALM      30.03R
COLUMBIA       CLOUDY    67  62  84 S3        30.03R
SUMTER         MOCLDY    69  61  76 CALM      30.01R
FLORENCE       PTCLDY    65  63  93 CALM      30.02F
MYRTLE BEACH   PTCLDY    69  65  86 CALM      30.04R
N MYRTLE BEACH CLEAR     66  64  93 CALM      30.02S

$$

GAZ063-065-086>088-099>101-113>116-118-119-134>141-150-271000-
...SOUTHEAST GEORGIA...

CITY           SKY/WX    TMP DP  RH WIND       PRES   REMARKS
SAVANNAH ARPT  MOCLDY    75  71  87 N5        30.03R
HUNTER AAF     MOCLDY    75  74  96 CALM      30.00S
FORT STEWART   PTCLDY    72  71  96 N3        30.00S
STATESBORO     PTCLDY    73  32  22 CALM      30.03S
SYLVANIA       PTSUNNY   72  72 100 CALM      30.04S
CLAXTON        FAIR      69  68  98 CALM      30.03S FOG

...CSRA...CENTRAL AND FAR SOUTHEAST GEORGIA...

CITY           SKY/WX    TMP DP  RH WIND       PRES   REMARKS
THOMSON        MOCLDY    64  62  94 CALM      30.10S
AUGUSTA-BUSH   PTCLDY    66  63  90 CALM      30.03R
AUGUSTA-DANIEL PTCLDY    72  61  68 N3        30.05R
SWAINSBORO     FAIR      68  68 100 CALM      30.05S
VIDALIA        PTCLDY    72  72 100 CALM      30.04S
EASTMAN        FAIR      69  69 100 CALM      30.06S
HAZLEHURST     FAIR      73  73 100 CALM      30.02S
ALMA           CLOUDY    71  70  96 CALM      30.02S FOG
WAYCROSS       CLOUDY    74  74 100 CALM      30.02R
JESUP          FAIR      72  70  94 CALM      30.02S
BAXLEY         CLOUDY    72  72 100 CALM      30.02F
BRUNSWICK      FOG       73  73 100 CALM      30.02S VSB 1/2
SAINT SIMONS   PTCLDY    76  75  97 NW3       30.00S

$$

SCZ027-028-034-036>038-045-046-048>050-GAZ119-141-271000-
...LAKE AND SUPPLEMENTAL COASTAL OBSERVATIONS...

STATION/POSITION TIME  TEMP    WIND        PRES    WAVE   SWELL
                       AIR SEA DIR/SP/G            HT/PER HT/PER/DIR
                 (UTC) (F)     (DEG/KT/KT) (MB)    (FT/S) (FT/S/D)
WINYAH BAY       0745   69     300/  2     1016.0
LAKE MURRAY      0820   73     300/  1/  4 1015.6F
ACE BASIN NERRS  NOT AVBL
FORT PULASKI     0848   77 84  350/  4/  5 1016.7S
SAPELO ISLAND    0800   75        CALM     1016.0

$$

ANZ835-935-AMZ111-154-330-350-352-354-370-450-454-472-271000-
...C-MAN AND BUOY OBSERVATIONS...

STATION/POSITION TIME  TEMP    WIND        PRES    WAVE   SWELL
                       AIR SEA DIR/SP/G            HT/PER HT/PER/DIR
                 (UTC) (F)     (DEG/KT/KT) (MB)    (FT/S) (FT/S/D)
BUOY 41004       0850   79 81   30/  4/  6 1016.0R   2/ 7   2/140/ 7
BUOY 41008       0850   79 82   30/  2/  4 1015.9S   2/ 8   2/ 80/ 8
FOLLY BEACH CMAN 0800   76     300/  3/  3 1016.9F
CAPERS NEARSHORE 0808   85 83  100/  2/  4 1016.2F
FRIPP NEARSHORE  0808   79 83  100/  2/  6 1016.1F


STATION/POSITION TIME  TEMP    WIND        PRES    WAVE   SWELL
                       AIR SEA DIR/SP/G            HT/PER HT/PER/DIR
                 (UTC) (F)     (DEG/KT/KT) (MB)    (FT/S) (FT/S/D)
5E ST. MARYS GA  0900      80                N/A     2/ 8
FRYING PAN BUOY  0850   78 80   30/  6/  8 1015.9S   2/ 7   2/130/ 7
BUOY 41025       0850   77 81  330/  6/  8 1015.8S   1/ 6   2/170/ 6
CAPE LOOKOUT NC  0800   76      20/  1/  1 1015.7F
BUOY 41002       0850   78 80  260/ 16/ 19 1015.6F   3/ 5   2/100/ 9
BUOY 41010       0850   83 83  180/ 16/ 17 1015.4R   3/ 6   2/130/ 8
ST AUGUSTINE FL  0900   75 78  290/  3/  4 1015.8F


$$




USA.gov is the U.S. government's official web portal to all federal, state and local government web resources and services.